Regional Weather Roundup
Issued by NWS

Home | Current Version | Previous Version | Text Only | Print | Product List | Glossary On
Versions: 1 2 3 4 5 6 7 8 9 10 11 12 13 14 15 16 17 18 19 20 21 22 23 24 25 26 27 28 29 30 31 32 33 34 35 36 37 38 39 40 41 42 43 44 45 46 47 48 49 50
000
ASUS43 KBIS 030301
RWRND

NORTH DAKOTA REGIONAL WEATHER ROUNDUP
NATIONAL WEATHER SERVICE BISMARCK ND
900 PM CST MON MAR 02 2015

NOTE: "FAIR" INDICATES FEW OR NO CLOUDS BELOW 12,000 FEET WITH NO
SIGNIFICANT WEATHER AND/OR OBSTRUCTIONS TO VISIBILITY.


NDZ001>003-009>011-017-030400-
NORTHWEST NORTH DAKOTA

CITY           SKY/WX    TMP DP  RH WIND       PRES   REMARKS
WILLISTON      CLOUDY    19  12  74 N15       29.90R WCI   5
MINOT          FLURRIES  23  16  74 W29G36    29.77R WCI   6
MINOT AFB      MOCLDY    20  17  88 W20G33    29.78R WCI   4
$$

NDZ018>021-031>035-040>046-030400-
SOUTHWEST NORTH DAKOTA

CITY           SKY/WX    TMP DP  RH WIND       PRES   REMARKS
BISMARCK       CLOUDY    30  24  78 CALM      29.72F
DICKINSON      CLOUDY    27  19  72 N20G28    29.74R WCI  13
GARRISON         N/A     25  19  78 NW23      29.76R WCI  10
HETTINGER ARPT CLOUDY    27  15  61 NW3       29.71F
$$

NDZ004>008-012>016-024-026-027-054-030400-
NORTHEAST NORTH DAKOTA

CITY           SKY/WX    TMP DP  RH WIND       PRES   REMARKS
GRAND FORKS    PTCLDY    25  17  72 S18       29.81F WCI  11
DEVILS LAKE    PTCLDY    27  19  74 S15       29.73S WCI  15
$$

NDZ022-023-025-028>030-036>039-047>053-030400-
SOUTHEAST NORTH DAKOTA

CITY           SKY/WX    TMP DP  RH WIND       PRES   REMARKS
FARGO          CLOUDY    28  17  63 S23G33    29.87F WCI  14
JAMESTOWN      PTCLDY    25  18  74 S14       29.75F WCI  13
$$



USA.gov is the U.S. government's official web portal to all federal, state and local government web resources and services.